Weather History for KHAI - June, 2013

Change the Weather History Date:

Saturday, June 8, 2013

  Actual Average Record
Temperature  
Mean Temperature 62 °F -  
Max Temperature 75 °F 80 °F 91 °F (1952)
Min Temperature 49 °F 55 °F 40 °F (1977)
Degree Days  
Heating Degree Days 3    
Growing Degree Days 12 (Base 50)    
Moisture  
Dew Point 52 °F    
Average Humidity 71    
Maximum Humidity 100    
Minimum Humidity 41    
Precipitation  
Precipitation 0.00 in - - ()
Sea Level Pressure  
Sea Level Pressure 29.98 in    
Wind  
Wind Speed 1 mph (SW)    
Max Wind Speed 7 mph    
Max Gust Speed -    
Visibility 9 miles    
Events      
Averages and records for this station are not official NWS values.
T = Trace of Precipitation, MM = Missing Value Source: NWS Daily Summary

Daily Weather History Graph

Daily Weather History Graph

Search for Another Location

Airport or City:

Trip Planner

Search our weather history database for the weather conditions in past years. The results will help you decide how hot, cold, wet, or windy it might be!

Date:

Astronomy

Jun. 08, 2013 Rise Set
Actual Time 6:06 AM EDT 9:16 PM EDT
Civil Twilight 5:32 AM EDT 9:50 PM EDT
Nautical Twilight 4:49 AM EDT 10:34 PM EDT
Astronomical Twilight 3:56 AM EDT 11:26 PM EDT
Moon 6:15 AM EDT (6/8) 9:17 PM EDT (6/8)
Length of Visible Light 16h 17m
Length of Day
15h 09m
New Moon, 0% of the Moon is Illuminated
Jun 8
New Moon
Jun 16
First Quarter
Jun 23
Full
Jun 30
Last Quarter
Jul 8
New

Hourly Weather History & Observations

Time (EDT) Temp. Dew Point Humidity Pressure Visibility Wind Dir Wind Speed Gust Speed Precip Events Conditions
12:14 AM 54.1 °F 51.6 °F 91% 29.92 in 10.0 mi Calm Calm - N/A   Clear
12:34 AM 53.8 °F 51.8 °F 93% 29.92 in 10.0 mi Calm Calm - N/A   Clear
12:54 AM 52.7 °F 51.1 °F 94% 29.93 in 10.0 mi Calm Calm - N/A   Clear
1:14 AM 53.1 °F 51.6 °F 95% 29.93 in 10.0 mi Calm Calm - N/A   Clear
1:34 AM 52.7 °F 50.9 °F 94% 29.92 in 10.0 mi Calm Calm - N/A   Clear
1:54 AM 52.3 °F 51.3 °F 96% 29.92 in 10.0 mi Calm Calm - N/A   Clear
2:14 AM 51.3 °F 50.4 °F 97% 29.92 in 7.0 mi Calm Calm - N/A   Clear
2:34 AM 51.4 °F 50.7 °F 97% 29.92 in 10.0 mi Calm Calm - N/A   Clear
2:54 AM 52.0 °F 51.3 °F 97% 29.92 in 7.0 mi Calm Calm - N/A   Clear
3:14 AM 52.0 °F 51.3 °F 97% 29.92 in 7.0 mi Calm Calm - N/A   Clear
3:35 AM 50.0 °F 49.3 °F 97% 29.92 in 5.0 mi Calm Calm - N/A   Clear
3:54 AM 49.5 °F 48.9 °F 98% 29.92 in 5.0 mi Calm Calm - N/A   Clear
4:14 AM 50.4 °F 50.0 °F 99% 29.92 in 7.0 mi Calm Calm - N/A   Clear
4:34 AM 50.0 °F 49.6 °F 99% 29.92 in 5.0 mi Calm Calm - N/A   Clear
4:54 AM 50.0 °F 50.0 °F 100% 29.92 in 2.5 mi Calm Calm - N/A   Clear
5:14 AM 50.2 °F 50.2 °F 100% 29.93 in 3.0 mi Calm Calm - N/A   Clear
5:34 AM 49.3 °F 49.1 °F 99% 29.94 in 4.0 mi Calm Calm - N/A   Clear
5:54 AM 49.1 °F 48.9 °F 99% 29.95 in 7.0 mi Calm Calm - N/A   Clear
6:14 AM 49.5 °F 49.5 °F 100% 29.95 in 5.0 mi Calm Calm - N/A   Clear
6:34 AM 49.6 °F 49.6 °F 100% 29.95 in 3.0 mi Calm Calm - N/A   Clear
6:54 AM 49.8 °F 49.8 °F 100% 29.96 in 5.0 mi Calm Calm - N/A   Clear
7:14 AM 52.0 °F 52.0 °F 100% 29.96 in 5.0 mi Calm Calm - N/A   Clear
7:34 AM 54.3 °F 54.0 °F 99% 29.96 in 5.0 mi Calm Calm - N/A   Clear
7:54 AM 55.4 °F 54.5 °F 97% 29.97 in 7.0 mi Calm Calm - N/A   Clear
8:15 AM 57.2 °F 55.0 °F 92% 29.98 in 10.0 mi Calm Calm - N/A   Clear
8:34 AM 58.5 °F 54.3 °F 86% 29.98 in 10.0 mi Calm Calm - N/A   Clear
8:54 AM 60.3 °F 54.1 °F 80% 29.98 in 10.0 mi Calm Calm - N/A   Clear
9:14 AM 62.1 °F 54.7 °F 77% 29.98 in 10.0 mi Calm Calm - N/A   Clear
9:34 AM 63.0 °F 54.7 °F 74% 30.00 in 10.0 mi SSW 4.6 mph - N/A   Clear
9:54 AM 64.4 °F 54.7 °F 71% 30.00 in 10.0 mi Calm Calm - N/A   Clear
10:14 AM 65.8 °F 54.9 °F 68% 30.00 in 10.0 mi South 4.6 mph - N/A   Clear
10:34 AM 66.4 °F 54.3 °F 65% 29.99 in 10.0 mi Calm Calm - N/A   Clear
10:54 AM 68.2 °F 53.6 °F 60% 30.00 in 10.0 mi Calm Calm - N/A   Clear
11:14 AM 68.4 °F 53.6 °F 59% 30.01 in 10.0 mi Calm Calm - N/A   Clear
11:34 AM 69.1 °F 53.8 °F 58% 30.01 in 10.0 mi WSW 3.5 mph - N/A   Clear
11:54 AM 69.4 °F 54.0 °F 58% 30.01 in 10.0 mi WSW 3.5 mph - N/A   Scattered Clouds
12:14 PM 68.7 °F 54.0 °F 59% 30.00 in 10.0 mi Calm Calm - N/A   Scattered Clouds
12:34 PM 70.9 °F 54.9 °F 57% 29.99 in 10.0 mi Calm Calm - N/A   Scattered Clouds
12:55 PM 72.7 °F 54.0 °F 52% 29.98 in 10.0 mi WSW 4.6 mph - N/A   Scattered Clouds
1:14 PM 72.9 °F 53.2 °F 50% 29.98 in 10.0 mi Calm Calm - N/A   Mostly Cloudy
1:34 PM 72.1 °F 53.6 °F 52% 29.98 in 10.0 mi Calm Calm - N/A   Overcast
1:54 PM 72.7 °F 53.1 °F 50% 29.98 in 10.0 mi SSW 6.9 mph - N/A   Mostly Cloudy
2:14 PM 73.2 °F 52.0 °F 47% 29.98 in 10.0 mi South 5.8 mph - N/A   Scattered Clouds
2:35 PM 74.3 °F 52.9 °F 47% 29.98 in 10.0 mi SSW 5.8 mph - N/A   Mostly Cloudy
2:54 PM 72.9 °F 52.2 °F 48% 29.98 in 10.0 mi WSW 3.5 mph - N/A   Overcast
3:14 PM 72.1 °F 52.5 °F 50% 29.98 in 10.0 mi West 3.5 mph - N/A   Mostly Cloudy
3:34 PM 73.4 °F 52.9 °F 49% 29.98 in 10.0 mi West 3.5 mph - N/A   Mostly Cloudy
3:54 PM 74.5 °F 52.3 °F 46% 29.97 in 10.0 mi Calm Calm - N/A   Mostly Cloudy
4:14 PM 73.8 °F 51.6 °F 46% 29.97 in 10.0 mi Calm Calm - N/A   Scattered Clouds
4:34 PM 73.4 °F 51.8 °F 47% 29.98 in 10.0 mi WSW 3.5 mph - N/A   Scattered Clouds
4:54 PM 74.5 °F 52.2 °F 46% 29.97 in 10.0 mi SW 4.6 mph - N/A   Scattered Clouds
5:14 PM 75.9 °F 50.9 °F 41% 29.98 in 10.0 mi WSW 4.6 mph - N/A   Clear
5:34 PM 75.2 °F 52.3 °F 45% 29.98 in 10.0 mi SW 4.6 mph - N/A   Clear
5:54 PM 74.3 °F 52.0 °F 46% 29.99 in 10.0 mi WSW 5.8 mph - N/A   Clear
6:14 PM 74.8 °F 50.9 °F 43% 29.99 in 10.0 mi Calm Calm - N/A   Clear
6:34 PM 74.1 °F 50.9 °F 44% 29.99 in 10.0 mi Calm Calm - N/A   Clear
6:54 PM 73.6 °F 51.6 °F 46% 29.99 in 10.0 mi West 4.6 mph - N/A   Scattered Clouds
7:14 PM 73.9 °F 53.1 °F 48% 30.00 in 10.0 mi WNW 4.6 mph - N/A   Scattered Clouds
7:34 PM 73.6 °F 52.3 °F 47% 30.01 in 10.0 mi Calm Calm - N/A   Scattered Clouds
7:54 PM 72.5 °F 54.0 °F 52% 30.01 in 10.0 mi Calm Calm - N/A   Scattered Clouds
8:14 PM 72.0 °F 53.6 °F 52% 30.01 in 10.0 mi NE 4.6 mph - N/A   Scattered Clouds
8:34 PM 71.1 °F 53.8 °F 54% 30.01 in 10.0 mi Calm Calm - N/A   Clear
8:54 PM 69.8 °F 53.4 °F 56% 30.02 in 10.0 mi NNE 3.5 mph - N/A   Scattered Clouds
9:14 PM 69.1 °F 53.4 °F 57% 30.02 in 10.0 mi Calm Calm - N/A   Overcast
9:34 PM 68.2 °F 53.6 °F 60% 30.02 in 10.0 mi Calm Calm - N/A   Mostly Cloudy
9:54 PM 67.3 °F 53.6 °F 61% 30.03 in 10.0 mi NE 4.6 mph - N/A   Scattered Clouds
10:14 PM 66.0 °F 54.7 °F 67% 30.03 in 10.0 mi ENE 3.5 mph - N/A   Scattered Clouds
10:35 PM 65.8 °F 54.5 °F 67% 30.04 in 10.0 mi Calm Calm - N/A   Mostly Cloudy
10:54 PM 64.8 °F 54.5 °F 69% 30.04 in 10.0 mi Calm Calm - N/A   Mostly Cloudy
11:14 PM 64.6 °F 54.1 °F 69% 30.04 in 10.0 mi NE 3.5 mph - N/A   Scattered Clouds
11:35 PM 63.9 °F 54.0 °F 70% 30.04 in 10.0 mi East 3.5 mph - N/A   Scattered Clouds
11:54 PM 62.1 °F 53.1 °F 72% 30.04 in 10.0 mi East 4.6 mph - N/A   Clear